• Em Portugal
  • Lista de países
  • Para 7 dias
  • Temperatura da água
  • Mapas de satélite
  • Mapa do tempo
  • Widgets de tempo
  • user-avatar
    Iniciar Sessão

    Previsão horária em Kranevo

    Hoje, 24 Setembro, Segunda-feira

    Tempo Temperatura Precipitação Vento Pressão Humidade
    00:00 +19°C° 0 mm 3 m/s 759 mmHg 90%
    01:00 +19°C° 0 mm 3 m/s 758 mmHg 92%
    02:00 +19°C° 0 mm 3 m/s 757 mmHg 92%
    03:00 +19°C° 0 mm 3 m/s 757 mmHg 93%
    04:00 +19°C° 0 mm 3 m/s 756 mmHg 93%
    05:00 +20°C° 0 mm 4 m/s 756 mmHg 94%
    06:00 +21°C° 0 mm 4 m/s 756 mmHg 87%
    07:00 +22°C° 0 mm 5 m/s 755 mmHg 81%
    08:00 +23°C° 0 mm 5 m/s 755 mmHg 70%
    09:00 +26°C° 0 mm 6 m/s 754 mmHg 61%
    10:00 +28°C° 0 mm 6 m/s 754 mmHg 52%
    11:00 +30°C° 0 mm 7 m/s 754 mmHg 43%
    12:00 +32°C° 0 mm 6 m/s 753 mmHg 41%
    13:00 +32°C° 0 mm 6 m/s 753 mmHg 38%
    14:00 +33°C° 0 mm 6 m/s 752 mmHg 36%
    15:00 +32°C° 0 mm 6 m/s 752 mmHg 38%
    16:00 +32°C° 0 mm 6 m/s 752 mmHg 40%
    17:00 +30°C° 0 mm 5 m/s 752 mmHg 42%
    18:00 +27°C° 0 mm 7 m/s 753 mmHg 49%
    19:00 +23°C° 0 mm 8 m/s 754 mmHg 55%
    20:00 +19°C° 0 mm 10 m/s 755 mmHg 62%
    21:00 +17°C° 0 mm 10 m/s 757 mmHg 64%
    22:00 +16°C° 0 mm 10 m/s 758 mmHg 67%
    23:00 +14°C° 0 mm 10 m/s 759 mmHg 69%

    Amanhã, 25 Setembro, Terça-feira

    Tempo Temperatura Precipitação Vento Pressão Humidade
    00:00 +13°C° 0.2 mm 9 m/s 760 mmHg 70%
    01:00 +12°C° 0.2 mm 8 m/s 760 mmHg 70%
    02:00 +12°C° 0.2 mm 7 m/s 761 mmHg 71%
    03:00 +13°C° 0.2 mm 6 m/s 761 mmHg 69%
    04:00 +13°C° 0.2 mm 6 m/s 761 mmHg 67%
    05:00 +13°C° 0.2 mm 5 m/s 762 mmHg 65%
    06:00 +13°C° 0 mm 5 m/s 762 mmHg 64%
    07:00 +13°C° 0 mm 4 m/s 763 mmHg 63%
    08:00 +13°C° 0 mm 4 m/s 763 mmHg 62%
    09:00 +14°C° 0 mm 4 m/s 763 mmHg 56%
    10:00 +15°C° 0 mm 4 m/s 764 mmHg 50%
    11:00 +16°C° 0 mm 5 m/s 764 mmHg 44%
    12:00 +16°C° 0 mm 5 m/s 764 mmHg 43%
    13:00 +16°C° 0 mm 5 m/s 764 mmHg 43%
    14:00 +16°C° 0 mm 5 m/s 764 mmHg 42%
    15:00 +16°C° 0 mm 5 m/s 764 mmHg 40%
    16:00 +16°C° 0 mm 5 m/s 764 mmHg 38%
    17:00 +16°C° 0 mm 5 m/s 764 mmHg 37%
    18:00 +15°C° 0 mm 5 m/s 765 mmHg 38%
    19:00 +14°C° 0 mm 5 m/s 766 mmHg 40%
    20:00 +13°C° 0 mm 4 m/s 766 mmHg 41%
    21:00 +12°C° 0 mm 5 m/s 767 mmHg 42%
    22:00 +12°C° 0 mm 5 m/s 767 mmHg 43%
    23:00 +10°C° 0 mm 6 m/s 767 mmHg 44%

    Depois de amanhã, 26 Setembro, Quarta-feira

    Tempo Temperatura Precipitação Vento Pressão Humidade
    00:00 +10°C° 0 mm 6 m/s 768 mmHg 46%
    01:00 +10°C° 0 mm 7 m/s 768 mmHg 49%
    02:00 +9°C° 0 mm 7 m/s 768 mmHg 51%
    03:00 +9°C° 0 mm 7 m/s 768 mmHg 54%
    04:00 +8°C° 0 mm 7 m/s 768 mmHg 57%
    05:00 +8°C° 0 mm 7 m/s 768 mmHg 59%
    06:00 +7°C° 0 mm 8 m/s 769 mmHg 58%
    07:00 +8°C° 0 mm 9 m/s 769 mmHg 56%
    08:00 +10°C° 0 mm 9 m/s 769 mmHg 54%
    09:00 +11°C° 0 mm 9 m/s 769 mmHg 49%
    10:00 +12°C° 0 mm 9 m/s 769 mmHg 45%
    11:00 +15°C° 0 mm 9 m/s 770 mmHg 40%
    12:00 +15°C° 0 mm 9 m/s 769 mmHg 38%
    13:00 +16°C° 0 mm 9 m/s 769 mmHg 36%
    14:00 +16°C° 0 mm 9 m/s 769 mmHg 34%
    15:00 +16°C° 0 mm 9 m/s 769 mmHg 34%
    16:00 +15°C° 0 mm 8 m/s 769 mmHg 35%
    17:00 +15°C° 0 mm 8 m/s 768 mmHg 35%
    18:00 +13°C° 0 mm 8 m/s 769 mmHg 37%
    19:00 +12°C° 0 mm 7 m/s 769 mmHg 40%
    20:00 +11°C° 0 mm 7 m/s 769 mmHg 42%
    21:00 +10°C° 0 mm 7 m/s 769 mmHg 43%
    22:00 +10°C° 0 mm 7 m/s 769 mmHg 45%
    23:00 +9°C° 0 mm 7 m/s 770 mmHg 46%

    27 Setembro, Quinta-feira

    Tempo Temperatura Precipitação Vento Pressão Humidade
    00:00 +9°C° 0 mm 7 m/s 769 mmHg 47%
    01:00 +8°C° 0 mm 7 m/s 769 mmHg 48%
    02:00 +8°C° 0 mm 6 m/s 769 mmHg 49%
    03:00 +7°C° 0 mm 6 m/s 769 mmHg 50%
    04:00 +7°C° 0 mm 6 m/s 768 mmHg 51%
    05:00 +7°C° 0 mm 6 m/s 768 mmHg 52%
    06:00 +8°C° 0 mm 7 m/s 768 mmHg 49%
    07:00 +9°C° 0 mm 7 m/s 768 mmHg 46%
    08:00 +10°C° 0 mm 7 m/s 768 mmHg 43%
    09:00 +11°C° 0 mm 7 m/s 768 mmHg 41%
    10:00 +14°C° 0 mm 7 m/s 768 mmHg 39%
    11:00 +15°C° 0 mm 7 m/s 768 mmHg 37%
    12:00 +16°C° 0 mm 7 m/s 767 mmHg 35%
    13:00 +17°C° 0 mm 6 m/s 766 mmHg 34%
    14:00 +17°C° 0 mm 6 m/s 766 mmHg 33%
    15:00 +17°C° 0 mm 6 m/s 765 mmHg 35%
    16:00 +17°C° 0 mm 6 m/s 765 mmHg 36%
    17:00 +16°C° 0 mm 6 m/s 765 mmHg 37%
    18:00 +15°C° 0 mm 5 m/s 765 mmHg 43%
    19:00 +13°C° 0 mm 5 m/s 765 mmHg 48%
    20:00 +12°C° 0 mm 4 m/s 765 mmHg 53%
    21:00 +12°C° 0 mm 4 m/s 764 mmHg 55%
    22:00 +12°C° 0 mm 4 m/s 764 mmHg 57%
    23:00 +11°C° 0 mm 4 m/s 764 mmHg 59%

    28 Setembro, Sexta-feira

    Tempo Temperatura Precipitação Vento Pressão Humidade
    00:00 +11°C° 0 mm 4 m/s 764 mmHg 58%
    01:00 +11°C° 0 mm 4 m/s 764 mmHg 58%
    02:00 +11°C° 0 mm 4 m/s 763 mmHg 57%
    03:00 +11°C° 0 mm 4 m/s 763 mmHg 56%
    04:00 +11°C° 0 mm 4 m/s 763 mmHg 54%
    05:00 +10°C° 0 mm 4 m/s 762 mmHg 52%
    06:00 +12°C° 0 mm 5 m/s 762 mmHg 47%
    07:00 +13°C° 0 mm 5 m/s 762 mmHg 43%
    08:00 +14°C° 0 mm 5 m/s 762 mmHg 38%
    09:00 +16°C° 0 mm 5 m/s 762 mmHg 38%
    10:00 +19°C° 0 mm 5 m/s 762 mmHg 38%
    11:00 +21°C° 0 mm 5 m/s 761 mmHg 38%
    12:00 +21°C° 0 mm 5 m/s 761 mmHg 38%
    13:00 +22°C° 0 mm 5 m/s 760 mmHg 38%
    14:00 +23°C° 0 mm 5 m/s 760 mmHg 38%
    15:00 +22°C° 0 mm 5 m/s 759 mmHg 42%
    16:00 +21°C° 0 mm 5 m/s 759 mmHg 45%
    17:00 +21°C° 0 mm 4 m/s 759 mmHg 48%
    18:00 +19°C° 0 mm 4 m/s 759 mmHg 55%
    19:00 +18°C° 0 mm 3 m/s 759 mmHg 62%
    20:00 +16°C° 0 mm 3 m/s 759 mmHg 69%
    21:00 +16°C° 0 mm 2 m/s 759 mmHg 71%
    22:00 +16°C° 0 mm 2 m/s 758 mmHg 74%
    23:00 +15°C° 0 mm 2 m/s 758 mmHg 76%

    29 Setembro, Sábado

    Tempo Temperatura Precipitação Vento Pressão Humidade
    00:00 +15°C° 0 mm 2 m/s 758 mmHg 77%
    01:00 +15°C° 0 mm 2 m/s 758 mmHg 78%
    02:00 +15°C° 0 mm 2 m/s 757 mmHg 79%
    03:00 +14°C° 0 mm 2 m/s 757 mmHg 80%
    04:00 +14°C° 0 mm 2 m/s 757 mmHg 81%
    05:00 +14°C° 0 mm 2 m/s 757 mmHg 81%
    06:00 +15°C° 0 mm 2 m/s 757 mmHg 76%
    07:00 +16°C° 0 mm 2 m/s 757 mmHg 71%
    08:00 +17°C° 0 mm 2 m/s 757 mmHg 67%
    09:00 +19°C° 0 mm 2 m/s 757 mmHg 62%
    10:00 +20°C° 0 mm 2 m/s 757 mmHg 57%
    11:00 +23°C° 0 mm 2 m/s 757 mmHg 52%
    12:00 +23°C° 0 mm 2 m/s 757 mmHg 49%
    13:00 +24°C° 0 mm 2 m/s 756 mmHg 47%
    14:00 +24°C° 0 mm 2 m/s 756 mmHg 45%
    15:00 +24°C° 0 mm 2 m/s 756 mmHg 47%
    16:00 +24°C° 0 mm 2 m/s 756 mmHg 49%
    17:00 +23°C° 0 mm 2 m/s 756 mmHg 51%
    18:00 +21°C° 0 mm 2 m/s 756 mmHg 58%
    19:00 +20°C° 0 mm 1 m/s 757 mmHg 64%
    20:00 +19°C° 0 mm 1 m/s 757 mmHg 71%
    21:00 +18°C° 0 mm 2 m/s 757 mmHg 71%
    22:00 +18°C° 0 mm 3 m/s 758 mmHg 72%
    23:00 +18°C° 0 mm 4 m/s 758 mmHg 73%
    Mostrar mais